Location: Azul
(36.7830°S, 59.8500°W)
Time: 00:29:01
(UTC-03:00)

STARS - Pass Details

Date: 30 October 2021
Orbit: 623 x 638 km, 98.2° (Epoch: 30 November)

Event Time Altitude Azimuth Distance (km) Brightness Sun altitude
Exits shadow 22:10:33 40° 165° (SSE) 941 ? -27.7°
Drops below altitude 10° 22:13:32 10° 185° (S) 2,029 ? -28.1°
Sets 22:15:45 0° 188° (S) 2,943 ? -28.4°
